Location: Atbuku
(36.4936°N, 30.4362°E)
Time: 18:51:28
(UTC+00:00)

NOSS 2-3 (E) - Pass Details

Date: 11 December 2025
Orbit: 492 x 1706 km, 63.3° (Epoch: 24 April)

Event Time Altitude Azimuth Distance (km) Brightness Sun altitude
Rises 15:06:07 0° 206° (SSW) 2,745 7.8 -5.0°
Reaches altitude 10° 15:08:25 10° 205° (SSW) 1,768 6.7 -5.4°
Maximum altitude 15:12:13 73° 120° (ESE) 522 3.1 -6.1°
Drops below altitude 10° 15:15:51 10° 36° (NE) 1,697 5.3 -6.8°
Enters shadow 15:16:49 - 35° (NE) 2,109 5.8 -6.9°
